Tracking 20945 objects as of 9-Jul-2020
HD Live streaming from Space Station
objects crossing your sky now

PSLV DEB

Track PSLV DEB now!
10-day predictions


NORAD ID: 35339
Int'l Code: 2001-049PX
Perigee: 645.8 km
Apogee: 909.8 km
Inclination: 98.2 °
Period: 100.3 minutes
Semi major axis: 7148 km
RCS: 0.0072 m2 (small)
Launch date: October 22, 2001
Source: India (IND)
Launch site: SRIHARIKOTA (SRI)

Note: This is SATELLITE DEBRIS
aabbcc
Your satellite tracking list
Your tracking list is empty




NASA's NSSDC Master Catalog

Two Line Element Set (TLE):
1 35339U 01049PX  20190.72180354 +.00000578 +00000-0 +17602-3 0  9998
2 35339 098.1686 349.1763 0184691 227.3121 131.2384 14.36325465925741
Source of the keplerian elements: AFSPC